This is the latest recevied weather packets stored in our database for station/object VE1UHF-4. If no packets are shown the sender has not sent any weather packets the latest 10 day(s).
| Time | Temp. | Humidity | Pressure | Rain* | Wind** | Luminosity | Snow |
|---|---|---|---|---|---|---|---|
| 1778104199 | 22.22° C | 77% | 1006.7 hPa | 0 mm | - | - | - |
| 1778103298 | 22.22° C | 78% | 1006.5 hPa | 0 mm | - | - | - |
| 1778102398 | 22.78° C | 78% | 1006.1 hPa | 0 mm | - | - | - |
| 1778101497 | 22.78° C | 78% | 1005.9 hPa | 0 mm | - | - | - |
| 1778100597 | 22.78° C | 79% | 1006 hPa | 0 mm | - | - | - |
| 1778099696 | 22.78° C | 79% | 1005.8 hPa | 0 mm | - | - | - |
| 1778098795 | 22.78° C | 80% | 1005.8 hPa | 0 mm | - | - | - |
| 1778097895 | 22.78° C | 80% | 1005.9 hPa | 0 mm | - | - | - |
| 1778096994 | 22.78° C | 80% | 1006.1 hPa | 0 mm | - | - | - |
| 1778096094 | 23.33° C | 80% | 1006.2 hPa | 0 mm | - | - | - |
| 1778095193 | 23.33° C | 80% | 1006.3 hPa | 0 mm | - | - | - |
| 1778094293 | 23.33° C | 79% | 1006.5 hPa | 0 mm | - | - | - |
| 1778093393 | 23.33° C | 80% | 1006.8 hPa | 0 mm | - | - | - |
| 1778092492 | 23.33° C | 81% | 1006.7 hPa | 0 mm | - | - | - |
| 1778091591 | 23.89° C | 82% | 1006.9 hPa | 0 mm | - | - | - |
| 1778090691 | 23.89° C | 84% | 1007.1 hPa | 0 mm | - | - | - |
| 1778089790 | 23.33° C | 85% | 1007 hPa | 0 mm | - | - | - |
| 1778088890 | 23.33° C | 86% | 1006.9 hPa | 0 mm | - | - | - |
| 1778087989 | 23.33° C | 88% | 1006.7 hPa | 0 mm | - | - | - |
| 1778087088 | 22.22° C | 88% | 1007 hPa | 0 mm | - | - | - |
| 1778086189 | 21.67° C | 89% | 1006.9 hPa | 0 mm | - | - | - |
| 1778085287 | 21.11° C | 89% | 1007.1 hPa | 0 mm | - | - | - |
| 1778084387 | 20.56° C | 89% | 1007.2 hPa | 0 mm | - | - | - |
| 1778083486 | 19.44° C | 88% | 1007.2 hPa | 0 mm | - | - | - |
| 1778082586 | 18.89° C | 87% | 1007.2 hPa | 0 mm | - | - | - |
* Rain since midnight (hover to see other rain measurements)
** Current wind speed in m/s (hover to see current wind gust speed)